Regional Weather Roundup
Issued by NWS

Home | Current Version | Previous Version | Text Only | Print | Product List | Glossary On
Versions: 1 2 3 4 5 6 7 8 9 10 11 12 13 14 15 16 17 18 19 20 21 22 23 24 25 26 27 28 29 30 31 32 33 34 35 36 37 38 39 40 41 42 43 44 45 46 47 48 49 50
000
ASUS44 KFWD 190215
RWRTX
NORTH TEXAS HOURLY WEATHER ROUNDUP
NATIONAL WEATHER SERVICE FORT WORTH TX
900 PM CDT THU SEP 18 2014

NOTE: "FAIR" INDICATES FEW OR NO CLOUDS BELOW 12,000 FEET WITH NO
SIGNIFICANT WEATHER AND/OR OBSTRUCTIONS TO VISIBILITY.

TXZ118-119-190300-
DALLAS/FORT WORTH METROPLEX

CITY           SKY/WX    TMP DP  RH WIND       PRES   REMARKS
DFW AIRPORT    MOCLDY    80  69  69 S12       29.89R
DALLAS LOVE    MOCLDY    79  69  71 S9        29.89R
FTW MEACHAM    MOCLDY    79  70  74 S15       29.89R
DAL-EXECUTIVE  CLOUDY    78  70  76 SE5       29.89R
FTW-ALLIANCE   MOCLDY    79  71  76 S9        29.89R
FTW-NAS-JRB    MOCLDY    81  69  67 S12       29.94R
FTW-SPINKS     CLOUDY    77  70  81 S7        29.92R
ARLINGTON      CLOUDY    78  70  76 S7        29.90R
GRAND PRAIRIE  MOCLDY    78  69  73 S6        29.91R
ADDISON        CLOUDY    79  64  61 S13G18    29.91
LANCASTER      CLOUDY    75  67  77 CALM      29.91R
$$

TXZ091>094-102>105-117-120-121-131>134-190300-
NORTH CENTRAL TEXAS

CITY           SKY/WX    TMP DP  RH WIND       PRES   REMARKS
SHRMAN/DENISON MOCLDY    77  69  78 SE5       29.92R
GAINESVILLE    MOCLDY    75  70  83 CALM      29.93R
BOWIE          MOCLDY    75  71  87 CALM      29.92R
BRIDGEPORT     MOCLDY    75  71  85 CALM      29.92R
DECATUR        MOCLDY    77  69  76 E3        29.92R
DENTON         MOCLDY    76  71  85 N3        29.89R
MCKINNEY       MOCLDY    80  70  71 S8        29.90R
GREENVILLE     MOCLDY    77  64  65 SE7       29.91R
ROCKWALL       MOCLDY    76  69  80 CALM      29.90R
TERRELL        MOCLDY    76  68  76 SE6       29.91R
WAXAHACHIE     CLOUDY    75  67  76 S5        29.91S
CLEBURNE       CLOUDY    73  73 100 SE7       29.93R
GRANBURY       CLOUDY    76  69  80 SE7       29.92R
$$

TXZ083>090-098>101-113>116-127>130-139>142-154-155-190300-
WESTERN NORTH TEXAS

CITY           SKY/WX    TMP DP  RH WIND       PRES   REMARKS
WICHITA FALLS  CLOUDY    75  70  84 SE5       29.91R
WF-KICKAPOO    CLOUDY    75  69  81 E5        29.92R
VERNON         CLOUDY    77  67  73 SE3       29.93R
ABILENE        CLOUDY    73  71  93 SE8       29.93R
ABILENE-DYESS  CLOUDY    72  68  86 SE5       29.93R
BRECKENRIDGE   CLOUDY    75  74  98 CALM      29.92R
GRAHAM         CLOUDY    76  68  75 CALM      29.90R
MINERAL WELLS  CLOUDY    78  70  76 SE12G21   29.90R
STEPHENVILLE   CLOUDY    72  66  82 S10G20    29.95R
COMANCHE       DRIZZLE   69  69  99 SE8       29.93R
BROWNWOOD      LGT RAIN  73  73 100 SE10      29.93R
COLEMAN        CLOUDY    72  70  93 S5        29.94R
BRADY          LGT RAIN  70  70 100 E8        29.94R
$$

TXZ143>147-156>162-174-175-190300-
CENTRAL TEXAS

CITY           SKY/WX    TMP DP  RH WIND       PRES   REMARKS
WACO           LGT RAIN  75  73  93 S3        29.90R
WACO-TSTC      LGT RAIN  75  73  94 S5        29.90R
WACO-MCGREGOR  CLOUDY    73  68  83 CALM      29.93R
HILLSBORO      CLOUDY    74  70  86 CALM      29.91R
CORSICANA      CLOUDY    73  67  81 SE5       29.91R
MEXIA          CLOUDY    70  69  97 CALM      29.89R
HEARNE         CLOUDY    73  73  98 N3        29.89R
CAMERON        LGT RAIN  74  73  97 CALM      29.89R
TEMPLE         CLOUDY    73  68  83 CALM      29.91R
KILLEEN        LGT RAIN  75  73  94 E3        29.95R
KILLEEN-SKYLRK CLOUDY    73  68  83 CALM      29.93R
FORT HOOD      CLOUDY    75  73  94 CALM      29.93R
GATESVILLE     LGT RAIN  73  73 100 S3        29.96R
HAMILTON       RAIN      73  73 100 SE8       29.95R
LAMPASAS       RAIN      73  72  96 CALM      29.96R
$$

TXZ095>097-106>112-122>126-135>138-148>153-164>167-190300-
EAST TEXAS

CITY           SKY/WX    TMP DP  RH WIND       PRES   REMARKS
PARIS          CLOUDY    75  66  73 E8        29.92R
SULPHUR SPRNGS MOCLDY    78  67  70 S5        29.94R
MOUNT PLEASANT MOCLDY    75  68  78 SE3       29.93R
GILMER         MOCLDY    75  70  83 CALM      29.94R
MINEOLA        MOCLDY    73  70  88 CALM      29.93R
TYLER          CLOUDY    73  67  81 SE3       29.91R
LONGVIEW       MOCLDY    72  68  87 CALM      29.91R
MARSHALL       MOCLDY    78  73  82 CALM      29.94R
ATHENS         MOCLDY    70  66  88 CALM      29.91R
PALESTINE      CLOUDY    71  70  97 CALM      29.92R
JACKSONVILLE   CLOUDY    71  69  93 SE6       29.94R
HENDERSON      CLOUDY    70  68  94 CALM      29.93R
NACOGDOCHES    CLOUDY    72  68  88 CALM      29.92R
LUFKIN         CLOUDY    74  70  87 SE3       29.90R
$$

SUPPLEMENTAL OBSERVATIONS (CENTRAL)

CITY           SKY/WX    TMP DP  RH WIND       PRES   REMARKS
LAKE TEXOMA      N/A     77  70  78 E1          N/A
CADDO GRASSLND   N/A     75  72  88 SE1         N/A
PAT MAYSE LAKE   N/A     77  72  83 E3          N/A
GREENVILLE       N/A     77  68  73 SE6         N/A
CEDAR HILL       N/A     75  68  78 S2G13       N/A
ATHENS           N/A     73  66  78 S6          N/A
PALESTINE        N/A     72  66  83 SE2         N/A
LAKE LIMESTONE   N/A     72  68  88 E2          N/A
MCGREGOR         N/A     73  70  88 SW2         N/A
TEMPLE           N/A     73  72  94 W1          N/A
$$

SUPPLEMENTAL OBSERVATIONS (WEST)

CITY           SKY/WX    TMP DP  RH WIND       PRES   REMARKS
MILLERS CREEK    N/A     73  70  88 E2          N/A
POSSUM KINGDOM   N/A     75  70  83 E5          N/A
GRANBURY         N/A     75  70  83 SE8G16      N/A
COMANCHE         N/A     70  64  83 SE9G17      N/A
HAMBY            N/A     72  68  88 S3          N/A
IVIE RESERVOIR   N/A     72  68  88 E9          N/A
COLORADO BEND    N/A     72  70  94 CALM        N/A
$$

SUPPLEMENTAL OBSERVATIONS (EAST)

CITY           SKY/WX    TMP DP  RH WIND       PRES   REMARKS
CLARKSVILLE      N/A     75  70  83 E1          N/A
TEXARKANA        N/A     73  72  94 CALM        N/A
LINDEN           N/A     77  70  78 SW1         N/A
CADDO LAKE       N/A     73  72  94 CALM        N/A
GILMER           N/A     73  66  78 S1          N/A
HENDERSON        N/A     70  66  88 E2          N/A
LUFKIN           N/A     72  68  88 MISG        N/A
N SABINE NF      N/A     72  68  88 MISG        N/A
S SABINE NF      N/A     72  68  88 CALM        N/A
$$

SUPPLEMENTAL OBSERVATIONS ARE A COLLECTION OF AUTOMATED INSTRUMENTS
THAT ARE MAINTAINED BY A VARIETY OF FEDERAL AND STATE AGENCIES.
CERTAIN ELEMENTS...SUCH AS HUMIDITY VALUES AND SUSTAINED WIND
SPEEDS...MAY BE APPROXIMATED.



USA.gov is the U.S. government's official web portal to all federal, state and local government web resources and services.